SKYSAT-C6

Last updated on Sun Jun 21 2026 00:02:52 GMT+0000 (Coordinated Universal Time)

1 42992U 17068F 26171.34260987 .00007933 00000+0 24159-3 0 9999 2 42992 97.4576 308.9800 0004575 129.5530 230.6117 15.34256947482808
UTC large
Height (km)
Speed (km/s)
/
Latitude / Longitude
Inclination (degrees)
Orbital Period (minutes)
Azimuth
Elevation
Range (km)
Doppler Factor

Next 0 passes for location: London (51.5072 / 0.1276)

No passes found over London.